Regional Weather Roundup
Issued by NWS Goodland, KS

Home | Current Version | Previous Version | Graphics & Text | Print | Product List | Glossary On
Versions: 1 2 3 4 5 6 7 8 9 10 11 12 13 14 15 16 17 18 19 20 21 22 23 24 25 26 27 28 29 30 31 32 33 34 35 36 37 38 39 40 41 42 43 44 45 46 47 48 49 50
000
ASUS43 KGLD 170308
RWRGLD

GOODLAND FORECAST AREA HOURLY WEATHER ROUNDUP
NATIONAL WEATHER SERVICE GOODLAND KS
800 PM MST MON JAN 16 2017

...OFFICIAL OBSERVATIONS...

CITY           SKY/WX    TMP DP  RH WIND       PRES   REMARKS
GOODLAND KS    CLOUDY    32  28  85 NW10      30.06S
HILL CITY KS   CLOUDY    34  32  92 NW7       30.05R
IMPERIAL NEB   CLOUDY    34  26  72 NW13      30.07S
MCCOOK NEB     CLOUDY    34  30  85 NW12      30.05S
AKRON CO       CLOUDY    33  20  58 NW8       30.09R
BURLINGTON CO  CLOUDY    33  27  78 NW8       30.08S
LIMON CO       CLOUDY    30  26  85 NW7       30.10S
$$

...UNOFFICIAL OBSERVATIONS...

CITY           SKY/WX    TMP DP  RH WIND       PRES   REMARKS
LENORA KS        N/A     33  32  96 NW8         N/A
NORTON KS      PTCLDY    34  27  75 NW10      30.03S
SHARON SPRINGS   N/A     33  30  89 NW12        N/A
TRIBUNE KS     CLOUDY    36  30  80 NW10      30.11
TRENTON NEB      N/A     33  32  96 N8          N/A
KIT CARSON CO    N/A     33  26  75 CALM        N/A
YUMA CO        CLOUDY    32  23  69 NW9       30.08S
$$




USA.gov is the U.S. government's official web portal to all federal, state and local government web resources and services.